Home > Weather > Košice > Past weeks

Flag for Slovakia Weather for the Past 2 Weeks in Košice, Slovakia

Now
41 °F

Scattered clouds.


Feels Like: 33 °F
Forecast: 28 / 44 °F
Wind: 14 mph from Southwest

Location: Kosice - Barca

Current Time: Feb 11, 2016 at 12:12:40 PM

Latest Report: Feb 11, 2016 at 11:30 AM


Visibility: N/A

Pressure: 29.59 "Hg

Humidity: 81%

Dew point: 36 °F

Location of KošiceLocation

Historic Weather in Košice — Graph

°F

Košice Temperature Yesterday

Maximum temperature yesterday: 48 °F (at 12:00 AM)
Minimum temperature yesterday: 34 °F (at 11:00 PM)
Average temperature yesterday: 44 °F

High & Low Weather Summary for the Past Weeks

 TemperatureHumidityPressure
High50 °F (Feb 9, 11:30 PM)100% (Jan 27, 11:00 AM)30.39 "Hg (Jan 27, 11:00 AM)
Low27 °F (Feb 5, 12:30 AM)45% (Feb 5, 3:00 PM)29.12 "Hg (Feb 10, 4:30 PM)
Average36 °F89%30.02 "Hg
* Reported Jan 27 11:00 AM — Feb 11 11:00 AM, Košice, Weather by CustomWeather, © 2016

Note: Actual official high and low records may vary slightly from our data, if they occured in-between our weather recording intervals... More about our weather records

Advertising

Košice Weather History for the Previous 24 Hours

 ConditionsComfort  
Time TempWeatherWind HumidityBarometerVisibility
11:00 AM
Thu, Feb 11
37 °FScattered clouds.12 mph87%29.59 "HgN/A
10:30 AM39 °FScattered clouds.8 mph81%29.59 "HgN/A
10:00 AM37 °FPassing clouds.5 mph87%29.59 "HgN/A
9:30 AM37 °FPassing clouds.7 mph87%29.59 "HgN/A
9:00 AM36 °FPassing clouds.7 mph87%29.56 "HgN/A
8:30 AM34 °FScattered clouds.7 mph100%29.56 "HgN/A
8:00 AM32 °FScattered clouds.5 mph93%29.56 "HgN/A
7:30 AM34 °FScattered clouds.6 mph93%29.53 "HgN/A
7:00 AM34 °FScattered clouds.8 mph93%29.53 "HgN/A
6:30 AM34 °FPassing clouds.7 mph93%29.50 "HgN/A
6:00 AM34 °FPassing clouds.2 mph93%29.50 "HgN/A
5:30 AM36 °FLow clouds.6 mph87%29.50 "HgN/A
5:00 AM36 °FClear.9 mph87%29.47 "Hg10 mi
4:30 AM36 °FClear.10 mph87%29.47 "Hg10 mi
4:00 AM36 °FClear.10 mph87%29.47 "Hg10 mi
3:00 AM36 °FLow clouds.10 mph87%29.45 "HgN/A
2:00 AM34 °FLow clouds.9 mph100%29.42 "HgN/A
1:30 AM34 °FPartly cloudy.10 mph100%29.42 "HgN/A
1:00 AM34 °FLow clouds.12 mph100%29.39 "HgN/A
12:00 AM34 °FPassing clouds.7 mph93%29.36 "HgN/A
11:00 PM
Wed, Feb 10
34 °FLight rain. Overcast.5 mph93%29.33 "HgN/A
10:00 PM36 °FLight rain. Overcast.7 mph93%29.30 "HgN/A
9:30 PM36 °FLight rain. Partly cloudy.6 mph93%29.27 "HgN/A
9:00 PM36 °FLight rain. Low clouds.7 mph93%29.27 "Hg4 mi
8:30 PM37 °FLight rain. Low clouds.10 mph100%29.24 "Hg3 mi
8:00 PM37 °FLight rain. Mostly cloudy.15 mph100%29.21 "Hg3 mi
7:30 PM39 °FOvercast.18 mph93%29.18 "HgN/A
7:00 PM39 °FLow clouds.15 mph93%29.15 "HgN/A
6:30 PM41 °FPassing clouds.20 mph93%29.12 "HgN/A
6:00 PM46 °FMostly cloudy.14 mph87%29.12 "HgN/A
5:30 PM45 °FLight rain. Mostly cloudy.7 mph100%29.12 "HgN/A
5:00 PM45 °FLight rain. Mostly cloudy.5 mph93%29.12 "HgN/A
4:30 PM45 °FRain. Overcast.5 mph93%29.12 "HgN/A
4:00 PM45 °FLight rain. Overcast.7 mph93%29.15 "HgN/A
3:30 PM45 °FLight rain. Overcast.7 mph93%29.15 "HgN/A
3:00 PM45 °FLight rain. Overcast.7 mph93%29.18 "HgN/A
2:30 PM45 °FLight rain. Overcast.8 mph93%29.18 "HgN/A
2:00 PM45 °FRain. Overcast.9 mph93%29.21 "HgN/A
1:30 PM45 °FRain. Overcast.8 mph93%29.21 "HgN/A
1:00 PM45 °FRain. Overcast.8 mph93%29.24 "HgN/A
12:30 PM45 °FRain. More clouds than sun.5 mph100%29.27 "Hg5 mi
12:00 PM45 °FRain. More clouds than sun.7 mph93%29.27 "Hg5 mi
Weather by CustomWeather, © 2016

See weather overviewHow to use our weather pages